Wind_Speed
22 20 22 19 17 12 7 5 4 6 8 8 9 8 8 9 8 9 9 8 9 8 9 10 12 14 16 19 19 19 19 17 17 15 12 14 14 12 11 8 8 9 10
10 17 21 20 16 10 7 7 7 7 8 8 9 10 10 10 10 10 10 10 10 11 11 10 11 13 14 16 18 19 20 20 18 18 15 13 14 14 13 12 11 12 11
16 14 21 19 14 10 8 9 9 9 9 9 10 10 11 12 12 13 13 13 13 11 11 11 11 12 13 15 16 18 17 19 20 18 17 15 14 16 15 14 14 16 14
14 15 15 16 14 12 10 11 9 9 10 10 12 13 13 13 13 14 15 15 15 13 12 11 12 12 12 14 16 11 15 16 17 20 18 16 15 14 16 16 17 18 18
13 14 15 15 13 12 11 10 8 9 9 10 13 14 14 14 15 15 16 15 16 15 13 12 11 13 12 13 15 16 13 15 14 18 19 18 16 17 15 18 20 21 20
9 12 14 14 14 14 12 11 8 8 7 10 12 12 11 15 16 16 16 17 17 17 15 17 17 16 14 15 15 16 17 14 14 16 18 19 18 19 17 17 22 23 23
7 12 12 14 14 14 12 11 9 8 8 10 13 12 12 15 15 16 19 19 19 19 19 18 18 18 16 17 17 17 18 17 15 14 17 19 20 20 19 18 21 23 24
5 8 13 15 16 15 14 14 12 10 11 13 15 11 12 12 13 15 18 21 21 21 22 20 20 19 19 20 19 19 18 19 18 16 16 19 20 22 22 19 20 23 27
9 12 14 17 19 19 16 15 13 12 14 16 15 12 12 12 12 13 15 18 19 21 22 23 23 23 23 22 21 21 20 21 19 18 15 19 20 22 23 22 21 23 23
15 16 20 19 21 21 19 17 14 15 17 19 17 15 14 13 13 13 15 15 16 18 19 20 22 24 25 25 24 23 21 20 20 19 17 18 20 21 24 24 22 23 23
23 21 25 24 23 23 21 18 16 18 19 21 18 18 17 16 15 14 14 13 14 15 16 15 15 18 24 24 26 24 22 20 21 21 18 18 19 22 23 24 24 26 24
29 25 27 27 27 25 22 19 18 18 21 19 18 17 18 17 16 15 14 12 13 14 15 15 16 17 19 22 24 24 23 22 21 20 18 18 19 21 22 23 24 29 29
28 27 29 30 28 25 22 18 18 19 16 15 14 15 16 17 17 17 14 13 12 11 12 15 16 13 18 22 22 23 23 21 21 19 19 18 18 20 22 23 25 24 20
32 29 30 31 29 25 21 18 19 16 12 10 9 11 13 15 17 16 14 14 12 13 13 12 14 15 15 19 20 21 22 19 20 19 18 17 18 20 22 23 26 32 23
35 34 34 31 28 24 20 19 17 13 9 9 11 11 12 14 16 15 15 14 13 12 13 12 14 15 14 15 19 19 20 19 20 20 17 17 17 19 21 24 29 31 30
39 37 34 30 27 23 20 18 14 10 9 9 10 11 12 13 14 15 16 15 14 12 12 11 12 14 13 15 16 18 18 19 20 19 17 17 16 19 20 23 27 25 22
41 39 33 28 27 23 19 14 11 8 10 11 12 12 11 12 13 14 15 15 14 12 11 11 12 14 14 15 16 17 16 18 18 18 17 18 17 19 20 23 26 23 23
42 37 30 28 27 20 16 12 9 9 10 11 13 12 11 12 13 13 14 14 13 13 12 11 11 14 14 16 16 15 15 17 16 16 17 17 16 18 20 23 27 21 22
40 33 28 29 23 18 13 10 9 10 10 10 12 12 13 14 13 13 12 12 13 13 12 11 11 14 14 17 16 13 15 15 14 13 16 15 15 16 17 22 26 20 24
32 28 29 26 19 15 11 9 9 8 9 12 13 13 14 13 12 11 11 12 13 12 11 11 11 15 15 16 13 12 14 12 13 11 12 12 15 15 15 20 21 24 19
28 31 32 24 17 13 11 9 7 7 10 12 13 13 13 12 12 10 10 12 12 11 10 10 14 15 15 15 14 12 11 10 13 11 12 12 13 12 13 17 24 25 24
31 36 27 19 15 12 10 7 6 7 9 10 9 10 10 10 11 10 9 10 11 10 10 11 18 17 16 14 13 14 10 8 11 10 12 12 13 13 14 19 23 23 26
36 31 22 16 14 11 8 5 4 6 8 9 7 5 6 8 8 7 8 10 9 9 8 13 19 16 16 16 13 10 6 4 11 9 10 10 11 13 13 17 24 24 29
32 25 18 15 13 11 6 2 3 4 8 9 7 6 7 7 4 2 7 8 8 8 8 15 17 15 15 15 16 14 7 7 8 7 7 8 8 9 10 13 23 23 24
28 21 17 14 11 10 5 1 3 5 8 9 9 7 6 6 3 4 6 5 7 7 10 14 15 14 14 13 17 19 11 5 7 6 10 10 5 8 11 12 10 16 24
23 20 17 12 10 9 5 1 3 6 7 9 10 8 6 3 4 6 6 7 7 9 10 13 12 11 10 11 16 17 12 9 9 10 16 13 9 11 16 16 12 17 29
Wind_Direction
189 193 198 202 202 204 211 235 274 299 303 300 298 287 274 264 254 245 254 258 262 255 260 251 255 256 252 248 243 237 232 229 229 229 226 224 218 214 216 213 202 197 178
187 191 197 203 203 207 224 226 258 287 294 297 294 290 285 278 272 269 264 265 265 264 267 265 259 256 257 252 249 243 237 232 229 229 230 229 222 222 220 229 220 217 195
184 187 194 199 204 217 230 233 260 284 294 293 289 282 279 277 278 278 278 281 278 268 258 261 261 262 257 258 254 252 246 240 234 231 225 227 228 223 224 222 220 212 197
175 188 191 195 207 217 222 232 254 279 297 290 285 279 270 262 266 270 273 279 281 272 267 260 252 257 262 258 256 253 257 249 238 236 228 223 220 223 220 218 212 206 199
174 191 190 194 204 212 223 238 263 286 299 296 291 281 270 259 262 268 267 271 273 263 261 258 262 269 260 266 261 252 251 261 245 236 230 227 218 219 217 212 209 208 206
175 193 195 201 208 214 222 231 254 271 288 297 302 287 271 267 272 274 270 270 266 269 254 253 257 258 256 261 263 255 244 255 257 242 230 224 220 220 219 214 212 216 210
182 199 204 206 209 218 225 232 248 261 271 287 301 291 268 266 271 275 270 268 270 266 257 260 257 256 258 252 256 258 248 243 251 249 234 223 221 215 216 217 214 212 205
217 216 213 214 217 221 227 234 246 262 278 290 299 282 267 274 280 275 269 264 262 261 262 258 257 260 254 253 250 253 255 244 243 246 241 225 222 217 216 218 216 211 195
223 223 222 222 221 222 229 236 253 267 280 287 287 273 267 270 268 268 276 269 260 253 252 253 254 252 251 250 248 246 247 244 242 244 244 230 221 217 220 218 218 214 216
226 227 226 227 223 224 228 237 255 272 282 286 278 266 264 268 267 273 287 277 269 263 256 251 252 251 251 248 247 244 243 245 239 240 240 230 222 217 220 218 219 218 214
223 228 226 225 224 225 228 240 254 266 276 277 266 259 262 267 269 278 284 280 274 264 259 250 257 260 245 245 244 242 238 239 236 236 237 229 222 219 220 220 218 216 210
225 229 226 225 222 225 227 238 254 265 276 270 262 260 263 265 264 275 279 282 279 269 256 247 255 255 241 239 239 237 237 235 233 234 234 227 223 221 219 218 218 220 207
231 231 229 223 222 226 229 241 255 272 268 261 261 258 256 257 260 273 265 266 281 270 267 251 249 259 240 235 233 232 230 232 231 231 231 222 224 220 216 217 216 210 209
232 235 230 224 224 226 228 240 261 269 267 267 263 264 262 268 268 268 262 261 275 267 263 263 250 250 243 233 234 227 226 234 226 229 232 217 225 220 214 213 209 207 211
235 235 229 223 224 227 230 245 265 269 275 267 273 279 282 280 275 264 260 257 263 269 260 262 255 245 242 231 224 224 223 229 222 227 229 215 224 218 209 208 208 210 219
237 235 230 224 226 222 231 253 265 268 270 274 272 280 292 291 280 268 258 255 253 262 257 262 258 242 238 230 222 219 225 225 221 226 227 212 222 212 208 207 206 203 208
237 234 230 223 217 218 238 253 260 266 275 278 273 279 290 302 289 271 255 251 245 254 257 263 260 233 226 219 211 214 222 217 217 225 223 211 216 213 208 206 203 207 203
236 231 227 220 213 220 237 251 255 267 283 282 279 274 286 300 295 277 256 246 241 251 258 264 253 225 221 208 204 212 221 210 216 224 217 212 217 211 210 206 201 198 197
234 230 217 210 209 225 234 243 255 279 288 284 288 277 281 293 297 283 258 240 236 246 256 257 244 215 211 201 204 217 212 209 218 222 208 215 214 212 206 202 196 188 193
232 223 205 203 209 219 227 236 260 283 289 294 291 280 278 288 297 293 255 232 234 239 248 249 228 204 203 203 207 210 206 215 211 209 213 217 205 207 204 211 201 199 171
223 205 197 199 207 213 219 232 255 294 303 302 292 279 278 282 296 292 252 229 234 238 245 239 203 197 198 197 199 192 198 212 211 215 214 213 214 208 206 198 195 188 191
205 192 188 189 205 207 211 230 274 315 322 322 306 282 273 287 297 270 235 231 226 236 235 219 191 189 186 187 190 175 183 198 213 215 207 217 210 204 210 194 192 191 182
186 180 182 190 198 198 205 231 298 330 341 341 326 295 293 307 291 266 230 213 224 233 224 200 185 190 190 184 181 173 146 175 185 198 212 216 214 215 208 202 207 192 186
175 174 182 191 189 191 195 235 315 346 358 356 343 307 301 303 294 246 197 211 227 207 196 184 184 187 191 199 184 187 185 198 170 174 198 196 221 227 223 205 216 195 194
172 173 182 183 187 191 192 272 354 9 359 360 352 331 308 297 251 213 203 198 179 168 166 170 180 190 188 204 204 182 198 193 199 182 172 191 204 232 225 211 219 193 190
172 177 179 181 188 188 186 4 333 346 350 355 353 342 326 278 201 177 171 160 166 166 167 164 170 183 189 201 185 187 198 216 225 199 173 171 191 220 233 203 210 223 203
Height
1505 1508 1510 1512 1514 1516 1517 1518 1519 1520 1520 1519 1518 1518 1518 1519 1519 1520 1520 1522 1523 1523 1523 1522 1523 1523 1524 1525 1526 1528 1530 1531 1533 1536 1539 1540 1542 1544 1546 1549 1549 1550 1550
1504 1506 1508 1511 1513 1515 1516 1517 1518 1518 1518 1518 1518 1517 1517 1517 1517 1517 1518 1519 1519 1520 1522 1520 1520 1522 1522 1522 1523 1526 1527 1530 1531 1533 1537 1539 1540 1543 1545 1547 1548 1549 1550
1503 1505 1507 1511 1513 1514 1515 1515 1516 1516 1515 1515 1515 1515 1516 1516 1517 1516 1515 1516 1517 1518 1519 1520 1518 1519 1520 1520 1520 1523 1525 1528 1529 1531 1534 1536 1538 1540 1543 1545 1547 1548 1549
1502 1503 1506 1508 1510 1511 1512 1513 1513 1514 1514 1513 1513 1513 1512 1512 1514 1515 1514 1512 1513 1514 1515 1517 1518 1517 1518 1519 1519 1521 1522 1524 1526 1529 1532 1534 1536 1538 1540 1543 1544 1546 1548
1500 1502 1504 1506 1508 1509 1510 1511 1511 1511 1511 1512 1512 1512 1512 1513 1512 1511 1513 1511 1511 1513 1514 1515 1515 1516 1516 1516 1517 1518 1521 1522 1523 1526 1529 1532 1533 1536 1538 1541 1543 1545 1547
1498 1501 1502 1504 1505 1506 1507 1508 1509 1510 1509 1509 1508 1508 1508 1509 1511 1511 1510 1509 1510 1510 1511 1512 1512 1512 1513 1513 1516 1516 1517 1520 1521 1523 1525 1529 1531 1534 1537 1538 1541 1542 1545
1495 1497 1499 1501 1502 1504 1505 1506 1507 1507 1507 1506 1506 1505 1506 1506 1506 1507 1508 1507 1506 1506 1507 1507 1509 1509 1510 1511 1514 1514 1515 1516 1519 1520 1522 1526 1529 1531 1534 1537 1537 1540 1542
1494 1495 1497 1499 1501 1502 1503 1503 1503 1504 1504 1504 1503 1502 1503 1504 1503 1503 1504 1504 1502 1502 1503 1503 1504 1506 1507 1508 1509 1511 1511 1514 1516 1518 1519 1522 1526 1529 1531 1534 1536 1538 1535
1492 1494 1496 1497 1497 1499 1500 1500 1501 1501 1501 1501 1500 1500 1500 1501 1500 1500 1500 1499 1497 1497 1498 1499 1499 1500 1501 1503 1505 1507 1508 1511 1512 1513 1517 1519 1523 1526 1528 1531 1533 1536 1538
1490 1491 1491 1493 1495 1497 1497 1498 1499 1499 1498 1498 1497 1497 1497 1497 1497 1497 1496 1494 1493 1492 1493 1494 1494 1494 1496 1498 1500 1503 1505 1507 1509 1510 1514 1517 1520 1523 1525 1528 1531 1534 1537
1484 1485 1487 1488 1490 1492 1495 1496 1496 1496 1496 1495 1493 1493 1493 1493 1494 1493 1492 1491 1490 1489 1489 1490 1491 1491 1493 1494 1496 1499 1502 1503 1506 1509 1511 1514 1517 1519 1522 1526 1528 1532 1535
1479 1481 1482 1484 1486 1488 1491 1493 1494 1494 1493 1491 1489 1489 1489 1490 1490 1489 1488 1487 1486 1486 1486 1486 1487 1487 1488 1490 1492 1495 1498 1500 1503 1506 1509 1512 1515 1516 1520 1522 1525 1528 1528
1475 1477 1477 1480 1484 1485 1487 1489 1491 1490 1489 1487 1486 1485 1486 1485 1486 1485 1484 1484 1483 1483 1482 1482 1483 1484 1485 1487 1489 1492 1495 1498 1502 1504 1506 1509 1511 1513 1516 1519 1522 1525 1528
1470 1471 1474 1477 1480 1483 1485 1486 1487 1486 1484 1483 1482 1482 1481 1481 1481 1481 1480 1480 1480 1479 1479 1479 1480 1481 1482 1484 1487 1489 1493 1495 1498 1501 1502 1505 1508 1510 1512 1515 1518 1521 1525
1465 1466 1468 1473 1477 1481 1483 1484 1483 1482 1480 1479 1479 1478 1477 1477 1476 1476 1476 1476 1477 1476 1476 1477 1477 1478 1479 1482 1484 1487 1490 1492 1495 1498 1500 1503 1505 1508 1510 1513 1516 1521 1523
1459 1463 1467 1471 1476 1479 1481 1482 1480 1478 1477 1476 1476 1475 1474 1473 1472 1472 1472 1472 1473 1474 1474 1474 1475 1475 1477 1479 1481 1485 1488 1490 1492 1494 1497 1501 1503 1505 1508 1511 1514 1518 1523
1454 1459 1464 1469 1473 1476 1478 1478 1477 1475 1473 1472 1473 1472 1471 1469 1469 1468 1468 1468 1469 1470 1471 1471 1471 1472 1474 1476 1479 1482 1485 1487 1490 1493 1496 1499 1501 1503 1506 1509 1513 1517 1521
1448 1456 1462 1467 1470 1474 1475 1475 1474 1473 1471 1470 1469 1468 1468 1466 1464 1463 1463 1464 1466 1467 1468 1468 1469 1470 1472 1475 1478 1481 1483 1486 1489 1491 1494 1497 1499 1502 1504 1508 1512 1517 1520
1444 1453 1459 1463 1468 1471 1472 1471 1471 1470 1468 1467 1466 1465 1464 1462 1461 1459 1459 1461 1462 1463 1465 1466 1466 1468 1471 1474 1477 1480 1483 1486 1488 1491 1493 1495 1498 1500 1503 1506 1512 1515 1520
1441 1449 1458 1462 1465 1467 1468 1468 1468 1466 1465 1464 1463 1462 1460 1459 1457 1456 1456 1457 1458 1460 1462 1463 1464 1467 1470 1473 1477 1479 1482 1485 1488 1491 1493 1495 1497 1500 1503 1507 1511 1514 1517
1437 1445 1448 1457 1462 1464 1465 1466 1465 1464 1463 1461 1459 1457 1456 1456 1454 1453 1453 1455 1456 1458 1459 1461 1463 1466 1469 1472 1476 1479 1482 1484 1487 1490 1492 1494 1496 1498 1502 1506 1511 1514 1517
1433 1439 1448 1453 1459 1462 1463 1463 1462 1461 1460 1457 1455 1454 1453 1452 1451 1450 1450 1452 1454 1456 1457 1458 1461 1464 1468 1471 1474 1478 1482 1485 1487 1489 1491 1493 1496 1499 1501 1505 1512 1515 1518
1433 1442 1449 1452 1457 1459 1460 1460 1460 1459 1457 1455 1453 1452 1451 1450 1448 1448 1448 1450 1453 1454 1455 1457 1460 1464 1467 1471 1475 1478 1481 1483 1486 1489 1491 1493 1495 1498 1501 1505 1509 1513 1517
1436 1443 1448 1452 1455 1457 1457 1458 1458 1457 1456 1454 1451 1450 1449 1448 1447 1447 1448 1450 1452 1453 1454 1456 1460 1464 1467 1470 1474 1478 1480 1482 1484 1489 1491 1493 1495 1498 1500 1504 1498 1509 1514
1437 1442 1446 1451 1453 1454 1455 1457 1457 1456 1455 1453 1451 1449 1447 1446 1446 1447 1448 1450 1451 1453 1455 1457 1461 1465 1468 1470 1473 1477 1480 1482 1484 1486 1490 1493 1496 1498 1500 1501 1505 1508 1512
1439 1442 1445 1449 1451 1452 1454 1455 1455 1455 1453 1452 1450 1447 1445 1445 1446 1447 1448 1450 1452 1454 1456 1459 1463 1466 1469 1471 1474 1477 1480 1482 1483 1483 1486 1492 1496 1499 1500 1504 1507 1507 1510